Change the Weather History Date:

Monday, July 16, 2012

  Actual Average Record
Temperature  
Mean Temperature 52 °F 55 °F  
Max Temperature 61 °F 60 °F 71 °F (1989)
Min Temperature 43 °F 50 °F 43 °F (2012)
Degree Days  
Heating Degree Days 13 10  
Month to date heating degree days 227 182  
Since 1 June heating degree days 656 643  
Since 1 July heating degree days 227 182  
Cooling Degree Days 0    
Month to date cooling degree days 0  
Year to date cooling degree days 0  
Since 1 June cooling degree days 0  
Growing Degree Days 2 (Base 50)    
Moisture  
Dew Point 42 °F    
Average Humidity 0    
Maximum Humidity 0    
Minimum Humidity 0    
Precipitation  
Precipitation 0.00 in 0.16 in 0.98 in (1995)
Month to date precipitation 3.02 2.63  
Year to date precipitation 29.46 39.93  
Snow  
Snow 0.00 in 0.00 in 0.00 in (2014)
Month to date snowfall 0.0 0.0  
Since 1 June snowfall 0.0 0.0  
Since 1 July snowfall 0.0 0.0  
Snow Depth 0.00 in    
Sea Level Pressure  
Sea Level Pressure 30.28 in    
Wind  
Wind Speed 6 mph (WNW)    
Max Wind Speed 14 mph    
Max Gust Speed 20 mph    
Visibility 10 miles    
Events      
T = Trace of Precipitation, MM = Missing Value Source: NWS Daily Summary

Daily Weather History Graph

Daily Weather History Graph

Search for Another Location

Airport or City:

Trip Planner

Search our weather history database for the weather conditions in past years. The results will help you decide how hot, cold, wet, or windy it might be!

Date:

Astronomy

Jul. 16, 2012 Rise Set
Actual Time 5:35 AM AKDT 10:55 PM AKDT
Civil Twilight 4:33 AM AKDT 11:57 PM AKDT
Nautical Twilight 2:48 AM AKDT 1:43 AM AKDT
Astronomical Twilight Sun does not rise Sun does not rise
Moon 3:27 AM AKDT (7/16) 9:06 PM AKDT (7/16)
Length of Visible Light 19h 23m
Length of Day
17h 20m
Waning Crescent, 5% of the Moon is Illuminated
Jul 16
Waning Crescent
Jul 18
New
Jul 26
First Quarter
Aug 1
Full
Aug 9
Last Quarter

Hourly Weather History & Observations

Time (AKDT) Temp. Windchill Dew Point Humidity Pressure Visibility Wind Dir Wind Speed Gust Speed Precip Events Conditions
12:53 AM 53.1 °F - 41.0 °F 64% 30.22 in 10.0 mi Variable 5.8 mph - N/A   Scattered Clouds
1:53 AM 50.0 °F - 41.0 °F 71% 30.24 in 10.0 mi Calm Calm - N/A   Scattered Clouds
2:53 AM 48.0 °F - 41.0 °F 77% 30.25 in 10.0 mi West 5.8 mph - N/A   Scattered Clouds
3:53 AM 46.0 °F 43.1 °F 39.9 °F 79% 30.26 in 10.0 mi West 5.8 mph - N/A   Scattered Clouds
4:53 AM 46.0 °F 41.0 °F 39.0 °F 76% 30.27 in 10.0 mi West 10.4 mph - N/A   Partly Cloudy
5:53 AM 48.0 °F - 37.9 °F 68% 30.27 in 10.0 mi WNW 6.9 mph - N/A   Scattered Clouds
6:53 AM 50.0 °F - 37.9 °F 63% 30.28 in 10.0 mi WNW 11.5 mph - N/A   Scattered Clouds
7:53 AM 51.1 °F - 39.0 °F 63% 30.29 in 10.0 mi NW 8.1 mph - N/A   Scattered Clouds
8:53 AM 54.0 °F - 39.0 °F 57% 30.30 in 10.0 mi WNW 8.1 mph - N/A   Partly Cloudy
9:53 AM 55.9 °F - 39.0 °F 53% 30.30 in 10.0 mi WNW 11.5 mph 16.1 mph N/A   Partly Cloudy
10:53 AM 57.9 °F - 39.9 °F 51% 30.31 in 10.0 mi NW 6.9 mph - N/A   Mostly Cloudy
11:53 AM 59.0 °F - 39.0 °F 48% 30.30 in 10.0 mi NW 10.4 mph - N/A   Mostly Cloudy
12:53 PM 55.0 °F - 46.9 °F 74% 30.31 in 10.0 mi ESE 8.1 mph - N/A   Mostly Cloudy
1:53 PM 57.9 °F - 46.9 °F 67% 30.30 in 10.0 mi East 6.9 mph - N/A   Mostly Cloudy
2:53 PM 57.0 °F - 46.0 °F 67% 30.31 in 10.0 mi East 4.6 mph - N/A   Mostly Cloudy
3:53 PM 55.9 °F - 46.0 °F 69% 30.30 in 10.0 mi East 8.1 mph - N/A   Mostly Cloudy
4:53 PM 55.0 °F - 45.0 °F 69% 30.30 in 10.0 mi ESE 8.1 mph - N/A   Overcast
5:53 PM 55.9 °F - 44.1 °F 64% 30.30 in 10.0 mi ESE 6.9 mph - N/A   Overcast
6:53 PM 55.9 °F - 43.0 °F 62% 30.29 in 10.0 mi East 4.6 mph - N/A   Mostly Cloudy
7:53 PM 55.0 °F - 45.0 °F 69% 30.27 in 10.0 mi ESE 5.8 mph - N/A   Mostly Cloudy
8:53 PM 53.1 °F - 46.0 °F 77% 30.27 in 10.0 mi SE 3.5 mph - N/A   Mostly Cloudy
9:53 PM 53.1 °F - 44.1 °F 71% 30.27 in 10.0 mi Calm Calm - N/A   Overcast
10:53 PM 52.0 °F - 44.1 °F 74% 30.25 in 10.0 mi Calm Calm - N/A   Overcast
11:53 PM 50.0 °F - 42.1 °F 74% 30.25 in 10.0 mi West 3.5 mph - N/A   Overcast